AAL465 MKJP-KMIA

Flight info

Callsign AAL465
Flight time 1h 26m
Altitude 34000
Route ALTIB UM779 ZEUSS VIICE2
Aircraft B738/M-SDE2E3FGHIRWXY/LB1

Departure

Time 2026-05-08 22:42
Airport Norman Manley International Airport (MKJP)

Arrival

Time 2026-05-09 00:08
Airport Miami International Airport (KMIA)
Time Latitude Longitude Altitude Speed Heading
2026-05-08 22:19 17.93720 -76.77915 27 ft 0 kts 292°
2026-05-08 22:31 17.93714 -76.77899 26 ft 2 kts 293°
2026-05-08 22:31 17.93710 -76.77889 29 ft 2 kts 294°
2026-05-08 22:31 17.93701 -76.77867 29 ft 2 kts 319°
2026-05-08 22:31 17.93685 -76.77863 27 ft 2 kts 356°
2026-05-08 22:32 17.93669 -76.77864 27 ft 2 kts 17°
2026-05-08 22:32 17.93658 -76.77868 30 ft 2 kts 24°
2026-05-08 22:32 17.93643 -76.77875 29 ft 2 kts 24°
2026-05-08 22:32 17.93628 -76.77882 30 ft 2 kts 24°
2026-05-08 22:33 17.93613 -76.77889 28 ft 2 kts 26°
2026-05-08 22:33 17.93599 -76.77897 30 ft 2 kts 26°
2026-05-08 22:33 17.93584 -76.77905 27 ft 2 kts 26°
2026-05-08 22:33 17.93569 -76.77912 28 ft 2 kts 25°
2026-05-08 22:34 17.93554 -76.77919 30 ft 2 kts 22°
2026-05-08 22:34 17.93538 -76.77925 26 ft 2 kts
2026-05-08 22:34 17.93522 -76.77928 29 ft 2 kts 11°
2026-05-08 22:34 17.93506 -76.77931 28 ft 2 kts
2026-05-08 22:35 17.93489 -76.77933 28 ft 2 kts
2026-05-08 22:35 17.93473 -76.77932 28 ft 2 kts 343°
2026-05-08 22:35 17.93464 -76.77928 27 ft 1 kts 312°
2026-05-08 22:37 17.93468 -76.77934 24 ft 4 kts 303°
2026-05-08 22:37 17.93459 -76.77988 24 ft 11 kts 252°
2026-05-08 22:37 17.93474 -76.78093 28 ft 18 kts 292°
2026-05-08 22:38 17.93531 -76.78237 27 ft 25 kts 292°
2026-05-08 22:38 17.93602 -76.78424 22 ft 30 kts 292°
2026-05-08 22:38 17.93689 -76.78646 21 ft 35 kts 292°
2026-05-08 22:38 17.93782 -76.78888 20 ft 36 kts 292°
2026-05-08 22:39 17.93878 -76.79135 19 ft 37 kts 292°
2026-05-08 22:39 17.93979 -76.79400 20 ft 41 kts 291°
2026-05-08 22:39 17.94086 -76.79679 17 ft 41 kts 286°
2026-05-08 22:39 17.94092 -76.79895 15 ft 0 kts 223°
2026-05-08 22:41 17.94088 -76.79899 17 ft 4 kts 222°
2026-05-08 22:41 17.94041 -76.79918 14 ft 10 kts 173°
2026-05-08 22:41 17.93973 -76.79796 16 ft 49 kts 112°
2026-05-08 22:41 17.93732 -76.79176 19 ft 131 kts 112°
2026-05-08 22:42 17.93308 -76.78098 224 ft 176 kts 113°
2026-05-08 22:42 17.92724 -76.76983 1297 ft 169 kts 132°
2026-05-08 22:42 17.91775 -76.76277 2303 ft 175 kts 155°
2026-05-08 22:42 17.90482 -76.76010 2921 ft 208 kts 179°
2026-05-08 22:43 17.89052 -76.76412 3595 ft 225 kts 209°
2026-05-08 22:43 17.87871 -76.77524 4486 ft 237 kts 232°
2026-05-08 22:43 17.87064 -76.79145 5004 ft 268 kts 252°
2026-05-08 22:43 17.86857 -76.81153 5624 ft 283 kts 281°
2026-05-08 22:44 17.87652 -76.83032 6326 ft 287 kts 314°
2026-05-08 22:44 17.89285 -76.84167 7088 ft 283 kts 346°
2026-05-08 22:44 17.91227 -76.84394 7874 ft 282 kts
2026-05-08 22:44 17.93202 -76.84311 8610 ft 286 kts
2026-05-08 22:45 17.95195 -76.84157 9378 ft 288 kts
2026-05-08 22:45 17.97201 -76.83989 10118 ft 291 kts
2026-05-08 22:45 17.99270 -76.83816 10489 ft 309 kts
2026-05-08 22:45 18.01495 -76.83637 10640 ft 332 kts
2026-05-08 22:46 18.03868 -76.83545 10899 ft 349 kts
2026-05-08 22:46 18.06315 -76.83669 11463 ft 354 kts 355°
2026-05-08 22:46 18.08771 -76.84012 12069 ft 358 kts 351°
2026-05-08 22:46 18.11219 -76.84533 12704 ft 361 kts 347°
2026-05-08 22:47 18.13669 -76.85187 13298 ft 365 kts 345°
2026-05-08 22:47 18.16124 -76.85935 13880 ft 369 kts 343°
2026-05-08 22:47 18.18587 -76.86744 14417 ft 372 kts 343°
2026-05-08 22:47 18.20967 -76.87560 14926 ft 375 kts 343°
2026-05-08 22:48 18.23454 -76.88432 15452 ft 378 kts 343°
2026-05-08 22:48 18.25955 -76.89321 15984 ft 381 kts 343°
2026-05-08 22:48 18.28476 -76.90222 16497 ft 384 kts 343°
2026-05-08 22:48 18.31019 -76.91135 16994 ft 388 kts 343°
2026-05-08 22:49 18.33582 -76.92057 17501 ft 391 kts 343°
2026-05-08 22:49 18.38729 -76.93909 18449 ft 397 kts 343°
2026-05-08 22:49 18.41352 -76.94852 18893 ft 399 kts 343°
2026-05-08 22:50 18.43975 -76.95796 19386 ft 399 kts 343°
2026-05-08 22:50 18.46607 -76.96744 19853 ft 400 kts 343°
2026-05-08 22:50 18.49242 -76.97692 20296 ft 401 kts 344°
2026-05-08 22:50 18.51889 -76.98646 20729 ft 403 kts 344°
2026-05-08 22:51 18.54555 -76.99605 21142 ft 405 kts 344°
2026-05-08 22:51 18.57228 -77.00568 21560 ft 407 kts 344°
2026-05-08 22:51 18.59912 -77.01535 21976 ft 408 kts 344°
2026-05-08 22:51 18.62604 -77.02506 22396 ft 410 kts 344°
2026-05-08 22:52 18.65307 -77.03480 22807 ft 411 kts 344°
2026-05-08 22:52 18.68020 -77.04459 23198 ft 413 kts 344°
2026-05-08 22:52 18.70735 -77.05439 23565 ft 414 kts 344°
2026-05-08 22:52 18.73474 -77.06428 23869 ft 416 kts 344°
2026-05-08 22:53 18.76224 -77.07421 24146 ft 419 kts 344°
2026-05-08 22:53 18.78990 -77.08420 24431 ft 421 kts 344°
2026-05-08 22:53 18.81766 -77.09423 24711 ft 423 kts 343°
2026-05-08 22:53 18.84563 -77.10434 24989 ft 425 kts 343°
2026-05-08 22:54 18.87374 -77.11450 25275 ft 427 kts 343°
2026-05-08 22:54 18.90196 -77.12471 25552 ft 429 kts 343°
2026-05-08 22:54 18.93028 -77.13496 25839 ft 431 kts 343°
2026-05-08 22:54 18.95832 -77.14511 26106 ft 433 kts 343°
2026-05-08 22:55 18.98693 -77.15548 26370 ft 435 kts 343°
2026-05-08 22:55 19.01565 -77.16588 26638 ft 437 kts 343°
2026-05-08 22:55 19.04443 -77.17631 26905 ft 439 kts 343°
2026-05-08 22:55 19.07342 -77.18682 27166 ft 441 kts 343°
2026-05-08 22:56 19.10248 -77.19736 27435 ft 443 kts 343°
2026-05-08 22:56 19.13169 -77.20796 27696 ft 444 kts 342°
2026-05-08 22:56 19.16105 -77.21861 27951 ft 446 kts 342°
2026-05-08 22:56 19.19052 -77.22931 28189 ft 448 kts 342°
2026-05-08 22:57 19.22006 -77.24004 28425 ft 450 kts 342°
2026-05-08 22:57 19.24975 -77.25083 28665 ft 452 kts 342°
2026-05-08 22:57 19.27951 -77.26165 28909 ft 453 kts 342°
2026-05-08 22:57 19.30941 -77.27252 29145 ft 455 kts 342°
2026-05-08 22:58 19.33943 -77.28344 29363 ft 457 kts 342°
2026-05-08 22:58 19.36958 -77.29441 29583 ft 459 kts 342°
2026-05-08 22:58 19.39972 -77.30539 29894 ft 458 kts 342°
2026-05-08 22:58 19.42982 -77.31635 30230 ft 456 kts 342°
2026-05-08 22:59 19.45983 -77.32729 30549 ft 455 kts 342°
2026-05-08 22:59 19.48969 -77.33818 30829 ft 454 kts 342°
2026-05-08 22:59 19.51962 -77.34909 31115 ft 454 kts 342°
2026-05-08 22:59 19.54944 -77.35996 31400 ft 453 kts 342°
2026-05-08 23:00 19.57924 -77.37084 31693 ft 452 kts 342°
2026-05-08 23:00 19.60892 -77.38167 31986 ft 451 kts 342°
2026-05-08 23:00 19.63860 -77.39251 32288 ft 450 kts 341°
2026-05-08 23:00 19.66822 -77.40333 32577 ft 450 kts 341°
2026-05-08 23:01 19.69779 -77.41414 32869 ft 449 kts 341°
2026-05-08 23:01 19.72691 -77.42478 33159 ft 449 kts 341°
2026-05-08 23:01 19.75681 -77.43572 33448 ft 448 kts 341°
2026-05-08 23:01 19.78580 -77.44633 33738 ft 447 kts 341°
2026-05-08 23:02 19.81524 -77.45710 33972 ft 447 kts 341°
2026-05-08 23:02 19.84477 -77.46792 33952 ft 450 kts 341°
2026-05-08 23:02 19.90375 -77.48953 33955 ft 446 kts 341°
2026-05-08 23:03 19.96222 -77.51097 33961 ft 443 kts 341°
2026-05-08 23:03 20.02044 -77.53233 33958 ft 442 kts 341°
2026-05-08 23:04 20.07839 -77.55361 33955 ft 441 kts 341°
2026-05-08 23:04 20.13636 -77.57492 33955 ft 440 kts 341°
2026-05-08 23:05 20.19434 -77.59625 33963 ft 441 kts 341°
2026-05-08 23:05 20.25244 -77.61764 33956 ft 442 kts 341°
2026-05-08 23:06 20.31068 -77.63909 33955 ft 444 kts 341°
2026-05-08 23:06 20.36910 -77.66063 33952 ft 445 kts 341°
2026-05-08 23:07 20.42773 -77.68227 33955 ft 446 kts 341°
2026-05-08 23:07 20.48648 -77.70397 33953 ft 447 kts 341°
2026-05-08 23:08 20.54498 -77.72559 33952 ft 448 kts 341°
2026-05-08 23:08 20.60387 -77.74737 33951 ft 448 kts 341°
2026-05-08 23:09 20.66269 -77.76915 33951 ft 447 kts 341°
2026-05-08 23:09 20.72132 -77.79087 33954 ft 446 kts 341°
2026-05-08 23:10 20.77998 -77.81263 33953 ft 445 kts 341°
2026-05-08 23:10 20.83858 -77.83437 33952 ft 444 kts 341°
2026-05-08 23:11 20.89692 -77.85604 33958 ft 443 kts 341°
2026-05-08 23:11 20.95474 -77.87754 33957 ft 442 kts 341°
2026-05-08 23:12 21.01273 -77.89911 33959 ft 441 kts 341°
2026-05-08 23:12 21.07062 -77.92067 33961 ft 440 kts 341°
2026-05-08 23:13 21.12849 -77.94224 33965 ft 439 kts 341°
2026-05-08 23:13 21.18621 -77.96376 33962 ft 439 kts 340°
2026-05-08 23:14 21.24387 -77.98529 33966 ft 439 kts 340°
2026-05-08 23:14 21.30156 -78.00684 33969 ft 439 kts 340°
2026-05-08 23:15 21.35921 -78.02839 33971 ft 439 kts 340°
2026-05-08 23:15 21.41697 -78.05001 33970 ft 440 kts 340°
2026-05-08 23:16 21.47480 -78.07167 33965 ft 440 kts 340°
2026-05-08 23:16 21.53230 -78.09322 33971 ft 440 kts 340°
2026-05-08 23:17 21.59017 -78.11493 33971 ft 441 kts 340°
2026-05-08 23:17 21.64819 -78.13672 33976 ft 441 kts 340°
2026-05-08 23:18 21.70619 -78.15851 33977 ft 442 kts 340°
2026-05-08 23:18 21.76420 -78.18033 33975 ft 442 kts 340°
2026-05-08 23:19 21.82229 -78.20220 33977 ft 442 kts 340°
2026-05-08 23:19 21.88039 -78.22409 33982 ft 442 kts 340°
2026-05-08 23:20 21.92863 -78.24228 33980 ft 442 kts 340°
2026-05-08 23:20 21.98668 -78.26419 33980 ft 442 kts 340°
2026-05-08 23:21 22.04465 -78.28608 33981 ft 441 kts 340°
2026-05-08 23:21 22.10257 -78.30797 33980 ft 441 kts 340°
2026-05-08 23:22 22.16039 -78.32985 33989 ft 440 kts 340°
2026-05-08 23:22 22.21812 -78.35171 33985 ft 439 kts 340°
2026-05-08 23:23 22.27546 -78.37344 33990 ft 439 kts 340°
2026-05-08 23:23 22.33303 -78.39528 33989 ft 438 kts 340°
2026-05-08 23:24 22.39050 -78.41711 33994 ft 438 kts 340°
2026-05-08 23:24 22.44795 -78.43894 33990 ft 437 kts 339°
2026-05-08 23:25 22.50537 -78.46078 33995 ft 437 kts 339°
2026-05-08 23:25 22.56276 -78.48263 33994 ft 437 kts 339°
2026-05-08 23:26 22.62010 -78.50448 33990 ft 437 kts 339°
2026-05-08 23:26 22.67752 -78.52638 33998 ft 437 kts 339°
2026-05-08 23:27 22.73487 -78.54827 33994 ft 437 kts 339°
2026-05-08 23:27 22.79285 -78.56802 34000 ft 439 kts 347°
2026-05-08 23:28 22.85300 -78.57937 33991 ft 439 kts 349°
2026-05-08 23:28 22.91289 -78.59005 34000 ft 439 kts 348°
2026-05-08 23:29 22.97322 -78.60111 34000 ft 439 kts 348°
2026-05-08 23:29 23.03346 -78.61240 33998 ft 439 kts 348°
2026-05-08 23:30 23.09372 -78.62377 34002 ft 439 kts 348°
2026-05-08 23:30 23.15397 -78.63516 34000 ft 439 kts 348°
2026-05-08 23:31 23.21421 -78.64654 33993 ft 440 kts 348°
2026-05-08 23:31 23.27444 -78.65794 33995 ft 440 kts 348°
2026-05-08 23:32 23.33475 -78.66935 34010 ft 439 kts 348°
2026-05-08 23:32 23.39497 -78.68076 34011 ft 439 kts 348°
2026-05-08 23:33 23.45488 -78.69212 34000 ft 439 kts 347°
2026-05-08 23:33 23.51509 -78.70355 34006 ft 439 kts 347°
2026-05-08 23:34 23.57536 -78.71500 34002 ft 439 kts 347°
2026-05-08 23:34 23.63563 -78.72646 34000 ft 439 kts 347°
2026-05-08 23:35 23.69587 -78.73793 34002 ft 439 kts 347°
2026-05-08 23:35 23.75611 -78.74941 33998 ft 439 kts 347°
2026-05-08 23:36 23.81544 -78.76073 33999 ft 440 kts 347°
2026-05-08 23:36 23.87574 -78.77224 34000 ft 440 kts 347°
2026-05-08 23:37 23.93601 -78.78376 34002 ft 440 kts 347°
2026-05-08 23:37 23.99571 -78.79601 33992 ft 437 kts 340°
2026-05-08 23:38 24.02315 -78.80959 34019 ft 432 kts 327°
2026-05-08 23:38 24.04889 -78.82649 34003 ft 432 kts 326°
2026-05-08 23:38 24.09996 -78.86122 34006 ft 432 kts 326°
2026-05-08 23:39 24.15123 -78.89574 34000 ft 433 kts 326°
2026-05-08 23:39 24.20269 -78.92993 34005 ft 433 kts 327°
2026-05-08 23:40 24.25436 -78.96414 34004 ft 433 kts 326°
2026-05-08 23:40 24.30603 -78.99838 34003 ft 434 kts 326°
2026-05-08 23:41 24.35738 -79.03245 34003 ft 434 kts 326°
2026-05-08 23:41 24.38315 -79.04957 33882 ft 436 kts 326°
2026-05-08 23:41 24.40907 -79.06680 33515 ft 433 kts 326°
2026-05-08 23:42 24.43472 -79.08385 33058 ft 428 kts 326°
2026-05-08 23:42 24.45997 -79.10063 32634 ft 423 kts 326°
2026-05-08 23:42 24.48508 -79.11733 32189 ft 419 kts 326°
2026-05-08 23:42 24.50991 -79.13386 31754 ft 416 kts 326°
2026-05-08 23:43 24.53455 -79.15027 31328 ft 412 kts 326°
2026-05-08 23:43 24.55899 -79.16656 30901 ft 409 kts 326°
2026-05-08 23:43 24.58321 -79.18271 30473 ft 406 kts 326°
2026-05-08 23:43 24.60731 -79.19879 30032 ft 404 kts 326°
2026-05-08 23:44 24.63121 -79.21475 29569 ft 401 kts 325°
2026-05-08 23:44 24.65491 -79.23058 29086 ft 397 kts 325°
2026-05-08 23:44 24.67845 -79.24630 28626 ft 394 kts 325°
2026-05-08 23:44 24.70174 -79.26188 28183 ft 390 kts 325°
2026-05-08 23:45 24.72479 -79.27730 27749 ft 387 kts 325°
2026-05-08 23:45 24.74768 -79.29262 27323 ft 383 kts 325°
2026-05-08 23:45 24.77031 -79.30777 26899 ft 380 kts 324°
2026-05-08 23:45 24.79284 -79.32286 26480 ft 377 kts 324°
2026-05-08 23:46 24.81524 -79.33787 26063 ft 375 kts 325°
2026-05-08 23:46 24.83741 -79.35273 25651 ft 372 kts 325°
2026-05-08 23:46 24.85926 -79.36737 25240 ft 370 kts 325°
2026-05-08 23:46 24.88122 -79.38209 24821 ft 369 kts 325°
2026-05-08 23:47 24.90307 -79.39676 24406 ft 367 kts 325°
2026-05-08 23:47 24.92487 -79.41140 23992 ft 366 kts 325°
2026-05-08 23:47 24.94654 -79.42595 23588 ft 365 kts 325°
2026-05-08 23:47 24.96818 -79.44049 23116 ft 363 kts 325°
2026-05-08 23:48 24.98966 -79.45493 22692 ft 360 kts 325°
2026-05-08 23:48 25.01097 -79.46927 22277 ft 358 kts 325°
2026-05-08 23:48 25.03216 -79.48353 21881 ft 355 kts 325°
2026-05-08 23:48 25.05316 -79.49766 21488 ft 353 kts 325°
2026-05-08 23:49 25.07401 -79.51171 21147 ft 349 kts 325°
2026-05-08 23:49 25.09447 -79.52547 21016 ft 339 kts 325°
2026-05-08 23:49 25.11455 -79.53899 20650 ft 337 kts 325°
2026-05-08 23:49 25.13452 -79.55245 20296 ft 336 kts 326°
2026-05-08 23:50 25.15447 -79.56591 19927 ft 335 kts 326°
2026-05-08 23:50 25.17426 -79.57926 19586 ft 333 kts 326°
2026-05-08 23:50 25.19402 -79.59261 19240 ft 332 kts 326°
2026-05-08 23:50 25.21372 -79.60591 18877 ft 332 kts 326°
2026-05-08 23:51 25.23340 -79.61920 18522 ft 332 kts 326°
2026-05-08 23:51 25.25305 -79.63249 18130 ft 332 kts 326°
2026-05-08 23:51 25.27271 -79.64578 17751 ft 331 kts 326°
2026-05-08 23:51 25.29230 -79.65902 17383 ft 329 kts 326°
2026-05-08 23:52 25.31177 -79.67219 17032 ft 327 kts 326°
2026-05-08 23:52 25.33116 -79.68532 16682 ft 326 kts 326°
2026-05-08 23:52 25.35047 -79.69839 16339 ft 325 kts 326°
2026-05-08 23:52 25.36964 -79.71137 15992 ft 323 kts 326°
2026-05-08 23:53 25.38825 -79.72520 15644 ft 320 kts 316°
2026-05-08 23:53 25.40231 -79.74405 15310 ft 316 kts 304°
2026-05-08 23:53 25.41486 -79.76395 14962 ft 315 kts 303°
2026-05-08 23:53 25.42733 -79.78392 14612 ft 315 kts 303°
2026-05-08 23:54 25.43987 -79.80382 14261 ft 315 kts 303°
2026-05-08 23:54 25.45233 -79.82340 13908 ft 315 kts 303°
2026-05-08 23:54 25.46497 -79.84314 13531 ft 315 kts 303°
2026-05-08 23:55 25.49033 -79.88270 12773 ft 314 kts 303°
2026-05-08 23:55 25.50295 -79.90240 12412 ft 313 kts 303°
2026-05-08 23:55 25.51554 -79.92205 12061 ft 313 kts 303°
2026-05-08 23:55 25.52810 -79.94169 11713 ft 312 kts 303°
2026-05-08 23:56 25.54062 -79.96126 11374 ft 311 kts 303°
2026-05-08 23:56 25.55313 -79.98081 11029 ft 310 kts 303°
2026-05-08 23:56 25.56560 -80.00032 10726 ft 309 kts 303°
2026-05-08 23:56 25.57782 -80.01944 10557 ft 302 kts 303°
2026-05-08 23:57 25.58983 -80.03822 10333 ft 298 kts 303°
2026-05-08 23:57 25.60168 -80.05679 10180 ft 291 kts 303°
2026-05-08 23:57 25.61323 -80.07488 10036 ft 284 kts 302°
2026-05-08 23:57 25.62461 -80.09273 9748 ft 284 kts 302°
2026-05-08 23:58 25.63596 -80.11053 9459 ft 282 kts 303°
2026-05-08 23:58 25.64727 -80.12828 9171 ft 281 kts 303°
2026-05-08 23:58 25.65805 -80.14632 8887 ft 279 kts 296°
2026-05-08 23:58 25.66635 -80.16541 8654 ft 279 kts 292°
2026-05-08 23:59 25.67431 -80.18511 8400 ft 282 kts 292°
2026-05-08 23:59 25.68246 -80.20496 8137 ft 283 kts 293°
2026-05-08 23:59 25.69073 -80.22485 7855 ft 283 kts 293°
2026-05-08 23:59 25.69902 -80.24454 7584 ft 282 kts 294°
2026-05-09 00:00 25.70735 -80.26421 7299 ft 281 kts 293°
2026-05-09 00:00 25.71234 -80.28488 6994 ft 278 kts 270°
2026-05-09 00:00 25.71158 -80.30616 6750 ft 275 kts 266°
2026-05-09 00:00 25.71041 -80.32731 6466 ft 274 kts 266°
2026-05-09 00:01 25.70927 -80.34846 6191 ft 273 kts 267°
2026-05-09 00:01 25.70821 -80.36946 5910 ft 272 kts 267°
2026-05-09 00:01 25.70718 -80.39034 5639 ft 271 kts 268°
2026-05-09 00:01 25.70618 -80.41109 5357 ft 269 kts 268°
2026-05-09 00:02 25.70518 -80.43180 5086 ft 267 kts 268°
2026-05-09 00:02 25.70409 -80.45247 4693 ft 270 kts 268°
2026-05-09 00:02 25.70294 -80.47332 4355 ft 271 kts 270°
2026-05-09 00:02 25.70724 -80.49296 4217 ft 262 kts 303°
2026-05-09 00:03 25.72018 -80.50662 4021 ft 258 kts 332°
2026-05-09 00:03 25.73707 -80.51247 3809 ft 253 kts 356°
2026-05-09 00:03 25.75385 -80.51031 3741 ft 236 kts 20°
2026-05-09 00:03 25.76716 -80.50103 3628 ft 220 kts 51°
2026-05-09 00:04 25.77320 -80.48654 3554 ft 203 kts 71°
2026-05-09 00:04 25.77725 -80.47214 3411 ft 188 kts 80°
2026-05-09 00:04 25.77897 -80.45813 3118 ft 181 kts 85°
2026-05-09 00:04 25.78045 -80.44446 2823 ft 174 kts 85°
2026-05-09 00:05 25.78140 -80.43106 2422 ft 170 kts 90°
2026-05-09 00:05 25.78196 -80.41865 2175 ft 157 kts 90°
2026-05-09 00:05 25.78243 -80.40646 1765 ft 158 kts 89°
2026-05-09 00:05 25.78290 -80.39462 1476 ft 151 kts 89°
2026-05-09 00:06 25.78327 -80.38297 1191 ft 150 kts 90°
2026-05-09 00:06 25.78367 -80.37167 926 ft 143 kts 88°
2026-05-09 00:06 25.78434 -80.36061 745 ft 143 kts 88°
2026-05-09 00:06 25.78474 -80.34953 646 ft 148 kts 90°
2026-05-09 00:07 25.78507 -80.33787 512 ft 151 kts 88°
2026-05-09 00:07 25.78564 -80.32671 309 ft 143 kts 88°
2026-05-09 00:07 25.78605 -80.31567 121 ft 140 kts 90°
2026-05-09 00:07 25.78646 -80.30516 16 ft 128 kts 86°
2026-05-09 00:08 25.78684 -80.29672 17 ft 72 kts 87°
2026-05-09 00:08 25.78708 -80.29305 18 ft 27 kts 73°
2026-05-09 00:08 25.78783 -80.29173 17 ft 11 kts 39°
2026-05-09 00:08 25.78819 -80.29104 15 ft 11 kts 85°
2026-05-09 00:09 25.78825 -80.29022 16 ft 11 kts 81°
2026-05-09 00:09 25.78840 -80.28944 16 ft 10 kts 76°
2026-05-09 00:09 25.78867 -80.28882 16 ft 10 kts 37°
2026-05-09 00:09 25.78935 -80.28873 14 ft 10 kts 356°
2026-05-09 00:10 25.79002 -80.28877 13 ft 10 kts 356°
2026-05-09 00:10 25.79072 -80.28882 12 ft 10 kts 356°
2026-05-09 00:10 25.79119 -80.28883 12 ft 10 kts 359°
2026-05-09 00:10 25.79189 -80.28883 12 ft 10 kts
2026-05-09 00:11 25.79274 -80.28881 13 ft 14 kts 359°
2026-05-09 00:11 25.79366 -80.28887 15 ft 13 kts 356°
2026-05-09 00:11 25.79449 -80.28868 16 ft 13 kts 51°
2026-05-09 00:11 25.79507 -80.28804 18 ft 12 kts 11°
2026-05-09 00:12 25.79577 -80.28785 19 ft 10 kts 42°
2026-05-09 00:12 25.79592 -80.28712 19 ft 10 kts 85°
2026-05-09 00:12 25.79597 -80.28635 19 ft 10 kts 86°
2026-05-09 00:12 25.79605 -80.28560 20 ft 10 kts 83°
2026-05-09 00:13 25.79583 -80.28495 18 ft 9 kts 125°
2026-05-09 00:13 25.79570 -80.28472 19 ft 0 kts 119°